Spearfish, SD

2:12 PM MST on March 01, 2017 (GMT -0700)
Black Hills-Ice

Weather History for KSPF - February, 2013

Change the Weather History Date:

Wednesday, February 27, 2013

  Actual Average (KEFC) Record (KEFC)
Temperature  
Mean Temperature 29 °F -  
Max Temperature 35 °F 47 °F 69 °F (1980)
Min Temperature 23 °F 20 °F -11 °F (1960)
Degree Days  
Heating Degree Days 36    
Moisture  
Dew Point 20 °F    
Average Humidity 71    
Maximum Humidity 86    
Minimum Humidity 52    
Precipitation  
Precipitation 0.00 in - - ()
Sea Level Pressure  
Sea Level Pressure 30.16 in    
Wind  
Wind Speed 11 mph (NW)    
Max Wind Speed 20 mph    
Max Gust Speed 29 mph    
Visibility 10 miles    
Events      
Averages and records for this station are not official NWS values.
T = Trace of Precipitation, MM = Missing Value Source: NWS Daily Summary

Daily Weather History Graph

Daily Weather History Graph

Search for Another Location

Airport or City:

Trip Planner

Search our weather history database for the weather conditions in past years. The results will help you decide how hot, cold, wet, or windy it might be!

Date:

Astronomy

Feb. 27, 2013 Rise Set
Actual Time 7:35 AM CST 6:40 PM CST
Civil Twilight 7:06 AM CST 7:10 PM CST
Nautical Twilight 6:32 AM CST 7:43 PM CST
Astronomical Twilight 5:58 AM CST 8:17 PM CST
Moon 9:12 PM CST (2/27) 8:05 AM CST (2/27)
Length of Visible Light 12h 03m
Length of Day
11h 05m
Waning Gibbous, 96% of the Moon is Illuminated
Feb 27
Waning Gibbous
Mar 4
Last Quarter
Mar 11
New
Mar 19
First Quarter
Mar 27
Full

Hourly Weather History & Observations

Time (CST) Temp. Windchill Dew Point Humidity Pressure Visibility Wind Dir Wind Speed Gust Speed Precip Events Conditions
12:15 AM 26.6 °F 16.8 °F 23.0 °F 86% 30.11 in 10.0 mi WNW 10.4 mph - N/A   Overcast
12:35 AM 26.6 °F 17.5 °F 21.2 °F 80% 30.11 in 10.0 mi WNW 9.2 mph - N/A   Overcast
12:55 AM 26.6 °F 16.2 °F 23.0 °F 86% 30.11 in 10.0 mi WNW 11.5 mph - N/A   Overcast
1:15 AM 26.6 °F 16.2 °F 23.0 °F 86% 30.11 in 10.0 mi West 11.5 mph - N/A   Overcast
1:35 AM 26.6 °F 15.2 °F 21.2 °F 80% 30.11 in 10.0 mi West 13.8 mph - N/A   Overcast
1:55 AM 26.6 °F 15.7 °F 21.2 °F 80% 30.12 in 10.0 mi WNW 12.7 mph 19.6 mph N/A   Overcast
2:15 AM 26.6 °F 15.2 °F 21.2 °F 80% 30.12 in 10.0 mi WNW 13.8 mph - N/A   Overcast
2:35 AM 26.6 °F 14.3 °F 21.2 °F 80% 30.13 in 10.0 mi WNW 16.1 mph - N/A   Overcast
2:55 AM 26.6 °F 15.2 °F 21.2 °F 80% 30.13 in 10.0 mi WNW 13.8 mph 18.4 mph N/A   Overcast
3:15 AM 26.6 °F 15.7 °F 21.2 °F 80% 30.13 in 10.0 mi NW 12.7 mph 18.4 mph N/A   Overcast
3:35 AM 26.6 °F 15.7 °F 19.4 °F 74% 30.13 in 10.0 mi WNW 12.7 mph - N/A   Overcast
3:55 AM 24.8 °F 14.0 °F 19.4 °F 80% 30.14 in 10.0 mi WNW 11.5 mph - N/A   Overcast
4:15 AM 24.8 °F 14.0 °F 19.4 °F 80% 30.14 in 10.0 mi WNW 11.5 mph - N/A   Overcast
4:35 AM 24.8 °F 12.9 °F 19.4 °F 80% 30.14 in 10.0 mi WNW 13.8 mph - N/A   Overcast
4:55 AM 24.8 °F 11.5 °F 17.6 °F 74% 30.14 in 10.0 mi WNW 17.3 mph 21.9 mph N/A   Overcast
5:15 AM 24.8 °F 12.4 °F 17.6 °F 74% 30.14 in 10.0 mi WNW 15.0 mph 19.6 mph N/A   Overcast
5:35 AM 24.8 °F 11.9 °F 17.6 °F 74% 30.15 in 10.0 mi WNW 16.1 mph 24.2 mph N/A   Overcast
5:55 AM 24.8 °F 10.7 °F 17.6 °F 74% 30.15 in 10.0 mi WNW 19.6 mph 24.2 mph N/A   Overcast
6:15 AM 24.8 °F 11.9 °F 17.6 °F 74% 30.16 in 10.0 mi WNW 16.1 mph 26.5 mph N/A   Overcast
6:35 AM 24.8 °F 11.1 °F 17.6 °F 74% 30.16 in 10.0 mi WNW 18.4 mph 24.2 mph N/A   Overcast
6:55 AM 24.8 °F 11.9 °F 17.6 °F 74% 30.16 in 10.0 mi WNW 16.1 mph 28.8 mph N/A   Overcast
7:15 AM 23.0 °F 10.1 °F 17.6 °F 80% 30.16 in 10.0 mi WNW 15.0 mph 24.2 mph N/A   Mostly Cloudy
7:35 AM 24.8 °F 12.4 °F 17.6 °F 74% 30.16 in 10.0 mi WNW 15.0 mph 25.3 mph N/A   Mostly Cloudy
7:55 AM 24.8 °F 11.9 °F 17.6 °F 74% 30.16 in 10.0 mi WNW 16.1 mph 21.9 mph N/A   Partly Cloudy
8:15 AM 24.8 °F 12.9 °F 17.6 °F 74% 30.17 in 10.0 mi WNW 13.8 mph 20.7 mph N/A   Clear
8:35 AM 24.8 °F 12.9 °F 17.6 °F 74% 30.17 in 10.0 mi WNW 13.8 mph 21.9 mph N/A   Clear
8:55 AM 24.8 °F 12.9 °F 17.6 °F 74% 30.18 in 10.0 mi WNW 13.8 mph 19.6 mph N/A   Partly Cloudy
9:15 AM 26.6 °F 15.7 °F 17.6 °F 69% 30.18 in 10.0 mi WNW 12.7 mph 19.6 mph N/A   Partly Cloudy
9:35 AM 26.6 °F 15.2 °F 17.6 °F 69% 30.18 in 10.0 mi WNW 13.8 mph 24.2 mph N/A   Scattered Clouds
9:55 AM 26.6 °F 16.2 °F 19.4 °F 74% 30.18 in 10.0 mi WNW 11.5 mph 20.7 mph N/A   Scattered Clouds
10:15 AM 28.4 °F 16.6 °F 19.4 °F 69% 30.18 in 10.0 mi WNW 16.1 mph 19.6 mph N/A   Mostly Cloudy
10:35 AM 28.4 °F 18.5 °F 21.2 °F 74% 30.18 in 10.0 mi NW 11.5 mph 19.6 mph N/A   Mostly Cloudy
10:55 AM 28.4 °F 19.7 °F 21.2 °F 74% 30.18 in 10.0 mi NW 9.2 mph - N/A   Mostly Cloudy
11:15 AM 30.2 °F 19.3 °F 23.0 °F 75% 30.18 in 10.0 mi NW 15.0 mph 18.4 mph N/A   Mostly Cloudy
11:35 AM 32.0 °F 22.5 °F 23.0 °F 69% 30.18 in 10.0 mi NNW 12.7 mph - N/A   Overcast
11:55 AM 32.0 °F 22.1 °F 23.0 °F 69% 30.18 in 10.0 mi NNW 13.8 mph - N/A   Mostly Cloudy
12:15 PM 32.0 °F 22.1 °F 23.0 °F 69% 30.18 in 10.0 mi NNW 13.8 mph 19.6 mph N/A   Mostly Cloudy
12:35 PM 32.0 °F 22.5 °F 21.2 °F 64% 30.18 in 10.0 mi NNW 12.7 mph 20.7 mph N/A   Mostly Cloudy
12:55 PM 32.0 °F 23.0 °F 21.2 °F 64% 30.17 in 10.0 mi NNW 11.5 mph 19.6 mph N/A   Mostly Cloudy
1:15 PM 32.0 °F 23.0 °F 23.0 °F 69% 30.17 in 10.0 mi NW 11.5 mph 19.6 mph N/A   Mostly Cloudy
1:35 PM 32.0 °F 20.8 °F 21.2 °F 64% 30.17 in 10.0 mi NW 17.3 mph 21.9 mph N/A   Scattered Clouds
1:55 PM 35.6 °F 26.2 °F 23.0 °F 60% 30.16 in 10.0 mi NW 15.0 mph 20.7 mph N/A   Mostly Cloudy
2:15 PM 32.0 °F 21.2 °F 19.4 °F 60% 30.16 in 10.0 mi NW 16.1 mph 20.7 mph N/A   Scattered Clouds
2:35 PM 33.8 °F 23.9 °F 19.4 °F 56% 30.16 in 10.0 mi NNW 15.0 mph 23.0 mph N/A   Mostly Cloudy
2:55 PM 32.0 °F 22.5 °F 19.4 °F 60% 30.16 in 10.0 mi NNW 12.7 mph - N/A   Overcast
3:15 PM 32.0 °F 23.0 °F 21.2 °F 64% 30.16 in 10.0 mi North 11.5 mph - N/A   Overcast
3:35 PM 33.8 °F 24.8 °F 21.2 °F 60% 30.16 in 10.0 mi NNW 12.7 mph - N/A   Overcast
3:55 PM 32.0 °F 24.2 °F 21.2 °F 64% 30.16 in 10.0 mi NNW 9.2 mph - N/A   Overcast
4:15 PM 32.0 °F 24.2 °F 21.2 °F 64% 30.17 in 10.0 mi NNW 9.2 mph - N/A   Overcast
4:35 PM 32.0 °F 24.2 °F 19.4 °F 60% 30.17 in 10.0 mi NW 9.2 mph - N/A   Overcast
4:55 PM 32.0 °F 23.6 °F 19.4 °F 60% 30.17 in 10.0 mi NW 10.4 mph - N/A   Overcast
5:15 PM 35.6 °F 28.6 °F 19.4 °F 52% 30.17 in 10.0 mi NW 9.2 mph - N/A   Mostly Cloudy
5:35 PM 33.8 °F 24.8 °F 17.6 °F 52% 30.17 in 10.0 mi WNW 12.7 mph - N/A   Partly Cloudy
5:55 PM 32.0 °F 26.4 °F 17.6 °F 55% 30.17 in 10.0 mi WNW 5.8 mph - N/A   Clear
6:15 PM 32.0 °F 28.7 °F 19.4 °F 60% 30.17 in 10.0 mi West 3.5 mph - N/A   Mostly Cloudy
6:35 PM 32.0 °F 27.5 °F 19.4 °F 60% 30.18 in 10.0 mi NNW 4.6 mph - N/A   Overcast
6:55 PM 32.0 °F 28.7 °F 17.6 °F 55% 30.17 in 10.0 mi NNW 3.5 mph - N/A   Overcast
7:15 PM 32.0 °F 28.7 °F 19.4 °F 60% 30.17 in 10.0 mi North 3.5 mph - N/A   Overcast
7:35 PM 32.0 °F 28.7 °F 19.4 °F 60% 30.17 in 10.0 mi NNW 3.5 mph - N/A   Overcast
7:55 PM 28.4 °F 24.6 °F 19.4 °F 69% 30.17 in 10.0 mi ENE 3.5 mph - N/A   Overcast
8:15 PM 28.4 °F 24.6 °F 19.4 °F 69% 30.18 in 10.0 mi East 3.5 mph - N/A   Overcast
8:35 PM 28.4 °F 24.6 °F 19.4 °F 69% 30.17 in 10.0 mi East 3.5 mph - N/A   Overcast
8:55 PM 26.6 °F - 19.4 °F 74% 30.17 in 10.0 mi Calm Calm - N/A   Mostly Cloudy
9:15 PM 26.6 °F 22.6 °F 19.4 °F 74% 30.17 in 10.0 mi NE 3.5 mph - N/A   Mostly Cloudy
9:35 PM 24.8 °F - 19.4 °F 80% 30.17 in 10.0 mi Calm Calm - N/A   Mostly Cloudy
9:55 PM 23.0 °F 15.8 °F 17.6 °F 80% 30.17 in 10.0 mi South 5.8 mph - N/A   Scattered Clouds
10:15 PM 23.0 °F - 17.6 °F 80% 30.17 in 10.0 mi Calm Calm - N/A   Clear
10:55 PM 24.8 °F 20.5 °F 17.6 °F 74% 30.17 in 10.0 mi SW 3.5 mph - N/A   Clear
11:15 PM 23.0 °F - 17.6 °F 80% 30.17 in 10.0 mi Calm Calm - N/A   Clear
11:35 PM 23.0 °F - 17.6 °F 80% 30.18 in 10.0 mi Calm Calm - N/A   Mostly Cloudy
11:55 PM 23.0 °F - 15.8 °F 74% 30.17 in 10.0 mi Calm Calm - N/A   Mostly Cloudy